Regional Weather Roundup
Issued by NWS San Angelo, TX

Home | Current Version | Previous Version | Text Only | Print | Product List | Glossary On
Versions: 1 2 3 4 5 6 7 8 9 10 11 12 13 14 15 16 17 18 19 20 21 22 23 24 25 26 27 28 29 30 31 32 33 34 35 36 37 38 39 40 41 42 43 44 45 46 47 48 49 50
000
ASUS44 KSJT 181710
RWRSJT
WEST CENTRAL TEXAS REGIONAL WEATHER ROUNDUP
NATIONAL WEATHER SERVICE SAN ANGELO TX
1100 AM CST WED JAN 18 2017

NOTE: "FAIR" INDICATES FEW OR NO CLOUDS BELOW 12,000 FEET WITH NO
SIGNIFICANT WEATHER AND/OR OBSTRUCTIONS TO VISIBILITY.

TXZ049-054-064>066-071>073-076>078-098-099-113-114-127-128-139-140-
154-155-168>170-181800
...LOCATIONS ACROSS WEST CENTRAL TEXAS...

CITY           SKY/WX    TMP DP  RH WIND       PRES   REMARKS
SAN ANGELO     CLOUDY    48  45  89 CALM      30.16S
ABILENE        CLOUDY    45  43  93 CALM      30.16R
DYESS AFB      CLOUDY    47  37  69 CALM      30.14S
JUNCTION       CLOUDY    49  46  90 NW5       30.14S
SWEETWATER     CLOUDY    47  47 100 SW7       30.16S
BROWNWOOD      CLOUDY    48  46  93 N6        30.16R
COLEMAN        CLOUDY    48  45  87 NW6       30.16R
SONORA         CLOUDY    48  45  87 N7        30.20S
OZONA          CLOUDY    45  43  93 MISG      30.19S
BRADY          NOT AVBL
$$

TEXAS PANHANDLE/OKLAHOMA PANHANDLE

CITY           SKY/WX    TMP DP  RH WIND       PRES   REMARKS
AMARILLO       MOSUNNY   45  42  89 S20       30.05S WCI  37
BORGER         SUNNY     50  43  77 SW13      30.04F
CANADIAN       CLOUDY    48  43  82 S10       30.07F
DALHART        PTSUNNY   44  39  82 S18       30.00F WCI  36
DUMAS          PTSUNNY   43  39  86 SW16      30.02F WCI  35
GUYMON         NOT AVBL
HEREFORD       CLOUDY    46  44  91 SW18      30.07S WCI  39
PAMPA          SUNNY     51  43  72 S13       30.06S
PERRYTON       NOT AVBL
$$

SOUTHERN PANHANDLE/SOUTH PLAINS/ROLLING PLAINS

CITY           SKY/WX    TMP DP  RH WIND       PRES   REMARKS
LUBBOCK        MOSUNNY   50  42  74 SW15      30.09F
SNYDER         CLOUDY    46  45  95 SW8       30.15R
CHILDRESS      CLOUDY    47  45  93 SE6       30.11F
SEMINOLE       CLOUDY    47  43  84 W6        30.15R
$$

PERMIAN BASIN

CITY           SKY/WX    TMP DP  RH WIND       PRES   REMARKS
MIDLAND        MOSUNNY   51  42  71 SW8       30.15R
ODESSA         MOSUNNY   49  41  74 SW9       30.15S
WINK           SUNNY     50  41  71 S9        30.15R
$$

FAR WEST/SOUTHWEST MOUNTAINS/TRANS PECOS

CITY           SKY/WX    TMP DP  RH WIND       PRES   REMARKS
ALPINE         SUNNY     46  45  96 SW8       30.21S
DRYDEN           N/A     48  40  73 W3        30.17R
EL PASO        MOSUNNY   43  37  79 S8        30.18R WCI  38
FORT STOCKTON  CLOUDY    44  40  85 W6        30.17S
GUADALUPE PASS NOT AVBL
MARFA          PTSUNNY   40  40 100 CALM      30.19F
PECOS          SUNNY     49  40  72 SW9       30.17S
$$

DALLAS/FORT WORTH METROPLEX

CITY           SKY/WX    TMP DP  RH WIND       PRES   REMARKS
DFW AIRPORT    CLOUDY    49  47  93 N10       30.09F
FTW MEACHAM    CLOUDY    49  45  86 N8        30.13R
DAL-EXECUTIVE  LGT RAIN  50  49  96 NE6       30.08F
GRAND PRAIRIE  CLOUDY    46  46 100 N7        30.12R
ADDISON        CLOUDY    48  46  93 N5        30.11S
MESQUITE       CLOUDY    48  48 100 NW7       30.12R
LANCASTER      DRIZZLE   49  47  95 N5        30.12R
$$

NORTH CENTRAL TEXAS

CITY           SKY/WX    TMP DP  RH WIND       PRES   REMARKS
SHRMAN/DENISON CLOUDY    47  47 100 N9        30.13S
GAINESVILLE    CLOUDY    47  45  91 N6        30.17R
BRIDGEPORT     CLOUDY    47  47 100 NW5       30.16F
DENTON         CLOUDY    47  46  97 N10       30.11F
WAXAHACHIE     CLOUDY    48  48 100 NE7       30.10F
GRANBURY       CLOUDY    49  46  92 NW7       30.16R
$$

WESTERN NORTH TEXAS

CITY           SKY/WX    TMP DP  RH WIND       PRES   REMARKS
WICHITA FALLS  CLOUDY    46  44  93 CALM      30.15R
VERNON         CLOUDY    46  42  86 CALM      30.15F
BRECKENRIDGE   CLOUDY    47  46  97 CALM      30.16S FOG
COMANCHE       CLOUDY    46  46 100 NW8       30.15S
$$

CENTRAL AND SOUTH CENTRAL TEXAS

CITY           SKY/WX    TMP DP  RH WIND       PRES   REMARKS
AUSTIN/BERGSTM CLOUDY    52  49  89 N7        30.11R
WACO           CLOUDY    51  49  92 N7        30.10F
HILLSBORO        N/A     51  50  95 N7        30.10
TEMPLE         CLOUDY    50  48  93 NW8       30.12R
KILLEEN-GRAY   CLOUDY    48  48 100 NW8       30.11R
FORT HOOD      CLOUDY    50  48  93 NW5       30.13R
GEORGETOWN     CLOUDY    52  46  82 NW6       30.12R
LAGO VISTA     CLOUDY    50  49  97 NW6       30.11S
SAN MARCOS     CLOUDY    52  48  87 N10       30.11S
NEW BRAUNFELS  CLOUDY    54  50  86 N9        30.10S
RANDOLPH AFB   CLOUDY    53  53 100 N6        30.11R
SAN ANTONIO    CLOUDY    54  49  83 NW7       30.12R
STINSON        CLOUDY    55  49  80 NW5       30.11R
PLEASANTON     NOT AVBL
LA GRANGE      LGT RAIN  52  51  95 NE5       30.06F
GIDDINGS       DRIZZLE   49  48  97 NE3       30.08F
$$

EAST TEXAS

CITY           SKY/WX    TMP DP  RH WIND       PRES   REMARKS
PARIS          CLOUDY    48  46  93 NE6       30.13F
CLARKSVILLE    NOT AVBL
TYLER          HVY RAIN  51  51 100 E5        30.11R VSB 1/2
LONGVIEW       HVY RAIN  54  54 100 N3        30.10S FOG
PALESTINE      RAIN      51  51 100 W8        30.13R
NACOGDOCHES    CLOUDY    55  54  94 E7        30.07S
$$

TEXAS HILL COUNTRY AND EDWARDS PLATEAU

CITY           SKY/WX    TMP DP  RH WIND       PRES   REMARKS
LLANO          CLOUDY    52  48  87 NW7       30.17F
HORSESHOE BAY  CLOUDY    50  48  93 NW9       30.13S
KERRVILLE      CLOUDY    51  49  92 NW10      30.13R
FREDERICKSBRG  CLOUDY    49  46  88 N6        30.13S
ROCKSPRINGS    CLOUDY    46  45  93 N9        30.16R
HONDO          CLOUDY    59  50  72 NW9       30.12S
UVALDE         CLOUDY    56  48  75 CALM      30.14F
DEL RIO        CLOUDY    53  44  71 NW13      30.17S
$$

SOUTHEAST TEXAS

CITY           SKY/WX    TMP DP  RH WIND       PRES   REMARKS
COLLEGE STN    TSTM      51  50  96 N8        30.08F FOG
CALDWELL       NOT AVBL
CROCKETT       LGT RAIN  54  54 100 NW9       30.13R
BRENHAM        LGT RAIN  53  52  97 N10       30.09F
HUNTSVILLE     RAIN      56  54  93 NW8       30.08R FOG
CONROE         CLOUDY    64  63  96 CALM      30.05S
HOUSTON BUSH   CLOUDY    71  68  90 VRB3      30.04F
HOUSTON HOBBY  PTSUNNY   76  69  79 S16G24    30.02F
PERLAND        PTSUNNY   77  69  76 S14G23    30.05S
WHARTON        CLOUDY    58  57  96 NW9       30.07R FOG
$$

THE UPPER TEXAS COAST

CITY           SKY/WX    TMP DP  RH WIND       PRES   REMARKS
ORANGE         CLOUDY   N/A N/A N/A S13       30.09S
PORT ARTHUR    CLOUDY    75  70  84 S13G21    30.07S
GALVESTON      PTSUNNY   74  70  87 S17       30.05F
ANGLETON       CLOUDY    77  70  79 S18       30.04F
BAY CITY       CLOUDY    75  72  88 S15       30.04S
$$

TEXAS COASTAL BEND, RIO GRANDE PLAINS DEEP SOUTH TEXAS

CITY           SKY/WX    TMP DP  RH WIND       PRES   REMARKS
VICTORIA       LGT RAIN  54  52  93 N9        30.08F FOG
BEEVILLE       CLOUDY    45  45 100 N9        30.11R FOG     WCI  40
ROCKPORT       CLOUDY    56  55  97 NW13      30.07F FOG
PORT ARANSAS   CLOUDY    56  56  99 NW13      30.07S FOG
PORT LAVACA    CLOUDY    55  55 100 NW5       30.08R
CORPUS CHRISTI CLOUDY    56  54  93 NW15      30.09S
KINGSVILLE NAS CLOUDY    56  56 100 NW16      30.10S FOG
COTULLA        CLOUDY    56  51  84 NW8       30.13S
LAREDO         CLOUDY    57  48  72 NW12      30.15S
BROWNSVILLE    CLOUDY    67  60  78 NW10      30.07F
PORT ISABEL    MOSUNNY   65  60  84 NW9       30.07S
HEBBRONVILLE   CLOUDY    53  52  95 N10       30.12F
MCALLEN        CLOUDY    62  55  77 NW10      30.11R
WESLACO        CLOUDY    61  56  84 NW9       30.10R
FALFURRIAS     CLOUDY    58  54  85 NW10      30.11S
EDINBURG       CLOUDY    63  57  80 NW10      30.11S
$$



USA.gov is the U.S. government's official web portal to all federal, state and local government web resources and services.